ASTRA 2E

Last updated on Sat Jul 05 2025 00:02:45 GMT+0000 (Coordinated Universal Time)

1 39285U 13056A 25185.57102604 .00000165 00000+0 00000+0 0 9998 2 39285 0.0877 308.3427 0003031 176.1724 32.3893 1.00275687 42935
UTC large
Height (km)
Speed (km/s)
/
Latitude / Longitude
Inclination (degrees)
Orbital Period (minutes)
Azimuth
Elevation
Range (km)
Doppler Factor

Next 0 passes for location: London (51.5072 / 0.1276)

Sorry there are no passes over London.